Theta_e
334 333 331 331 333 333 335 333 332 331 331 331 329 331 333 336 338 337 336 337 338 336 337 336 339 338 341 336 336 336 336 333 334 332 334 334 331 330 333 330 329 329
335 335 339 334 337 339 333 333 333 332 331 332 333 333 334 335 337 337 336 338 339 337 336 336 337 337 336 336 334 334 332 333 333 339 334 332 332 330 331 330 330 328
333 335 337 334 335 335 333 333 333 331 331 333 333 333 336 339 335 336 337 335 335 335 335 336 335 337 336 335 334 334 334 330 331 332 335 332 331 331 331 331 329 328
333 334 335 333 333 333 333 333 332 333 332 331 332 336 337 338 336 335 333 343 335 334 334 334 335 334 334 334 333 333 333 332 332 331 331 332 333 332 330 329 332 331
332 334 334 333 332 333 335 334 333 331 330 330 331 333 338 336 334 331 333 333 333 333 333 334 333 333 334 333 332 332 332 332 332 332 331 330 330 332 331 332 331 329
333 335 335 334 333 333 333 331 331 331 331 330 332 336 335 335 333 332 333 333 333 333 333 332 331 332 333 333 332 332 332 333 333 332 331 330 331 332 334 333 330 329
333 334 335 335 335 334 333 330 331 332 328 329 331 332 333 333 333 333 333 332 331 333 332 331 331 332 333 332 332 332 332 333 332 332 331 331 331 331 331 331 331 330
333 333 335 334 334 334 333 332 331 332 332 331 330 331 332 332 332 332 332 332 332 331 332 332 332 332 332 332 333 332 332 334 334 332 331 331 330 329 328 330 330 328
335 335 334 333 333 332 333 333 332 332 333 332 331 331 332 332 332 331 331 332 332 332 331 331 331 331 331 332 332 332 332 332 334 333 331 331 330 329 328 328 328 328
335 335 334 334 333 332 332 332 333 333 334 333 332 332 332 333 333 332 331 331 331 331 331 330 330 331 331 332 333 332 332 332 332 332 332 331 331 330 329 328 327 326
334 334 333 333 332 333 333 333 333 334 334 333 332 331 331 330 332 333 331 330 331 330 330 330 330 330 330 332 333 333 332 331 331 330 330 331 331 330 333 329 327 326
334 334 333 333 333 333 334 335 334 333 331 332 332 330 329 329 328 330 332 329 329 330 330 330 329 329 331 332 333 333 332 331 332 332 332 330 329 329 329 329 328 326
334 334 334 334 335 334 334 334 333 332 331 328 330 327 328 327 327 326 330 328 327 329 330 330 330 330 330 331 331 330 330 330 331 331 330 330 329 329 329 328 327 326
335 335 335 335 335 334 333 333 333 331 329 328 330 327 327 326 326 326 326 329 328 328 329 328 327 327 328 330 331 330 330 330 329 329 328 328 328 328 328 327 327 326
336 335 335 335 335 334 333 332 332 331 329 329 331 328 329 327 328 328 327 326 326 328 328 328 328 329 331 332 331 330 330 329 328 328 327 327 327 327 327 327 326 326
335 336 335 335 334 334 333 333 332 331 329 328 329 328 328 330 328 328 328 328 327 327 326 328 330 331 336 335 333 332 329 330 330 329 327 327 327 326 326 326 326 325
335 335 334 333 334 334 333 333 331 330 329 328 327 327 328 328 330 328 329 330 329 327 326 327 329 331 331 328 329 333 333 329 328 328 327 327 328 327 327 328 327 325
335 335 334 334 333 333 333 331 330 328 327 327 327 327 328 328 329 329 329 329 329 328 327 328 327 331 326 327 328 329 332 332 327 326 327 327 327 327 327 326 326 325
334 335 335 334 334 333 333 331 329 328 328 327 327 328 328 328 329 329 329 329 329 328 329 329 329 329 326 325 326 326 326 328 326 326 326 327 326 326 326 326 326 326
334 334 333 334 334 333 332 330 329 328 328 328 329 328 328 329 329 329 330 329 329 328 328 329 329 329 325 323 323 322 323 325 324 324 324 324 324 325 326 326 326 325
334 334 332 332 332 332 330 329 329 328 328 329 330 329 329 330 331 329 328 329 328 328 328 328 331 325 322 320 318 318 319 323 321 323 323 322 323 324 324 325 325 325
331 330 331 331 330 330 329 329 328 328 328 329 330 329 329 330 329 328 326 326 327 326 327 327 328 318 319 318 318 317 320 323 320 320 320 320 321 322 323 324 325 324
331 329 330 331 330 330 329 330 329 329 329 330 329 329 330 330 328 326 326 326 327 327 325 324 325 321 316 317 317 316 318 320 319 320 321 322 322 324 324 324 324 324
333 332 332 332 331 330 330 330 330 330 331 334 331 330 330 330 327 325 326 327 327 326 326 323 323 322 316 313 314 315 320 320 319 319 319 321 322 323 323 323 324 332
334 334 333 332 331 331 331 331 331 331 332 333 332 330 328 326 328 325 325 326 327 327 330 327 323 322 317 312 312 312 316 317 318 318 319 321 322 322 322 322 322 326
335 335 334 333 332 332 331 330 331 331 330 330 327 327 327 325 327 326 325 325 325 326 326 326 324 324 325 314 310 310 313 319 319 318 320 320 319 321 320 318 318 318
Wind_Speed
7 7 7 6 6 6 6 5 5 5 4 5 5 4 5 4 4 3 3 2 3 3 3 3 3 4 4 3 3 3 3 3 3 3 4 4 3 3 3 4 3 4
8 7 6 6 6 5 6 6 5 5 5 5 5 5 4 3 4 3 3 4 4 4 4 4 4 4 4 4 4 4 4 3 4 2 3 4 4 3 4 4 4 3
7 7 7 7 7 6 7 5 6 5 5 5 5 4 4 4 4 4 4 4 4 4 4 4 4 4 4 4 4 4 4 4 4 3 3 4 4 4 5 4 3 4
8 8 8 8 7 7 5 5 4 4 4 4 4 5 5 4 4 5 4 4 4 4 4 4 4 4 4 4 3 4 4 4 4 3 4 3 4 4 5 4 4 3
8 7 6 7 6 6 5 5 5 5 5 5 4 4 4 4 5 4 4 4 4 4 4 4 4 4 4 4 4 4 4 5 4 4 4 5 5 4 5 4 4 4
6 6 6 6 6 6 6 6 6 6 5 4 5 4 4 5 5 5 5 5 5 5 5 4 4 4 4 4 4 5 5 5 5 4 5 5 5 4 4 4 4 4
8 7 7 6 6 6 8 8 8 7 6 5 3 4 4 4 4 6 6 6 5 5 5 5 5 5 4 4 4 4 5 5 5 4 5 5 4 5 1 2 5 6
9 7 7 6 7 7 7 7 6 6 5 3 4 5 4 5 6 6 5 6 5 6 6 6 5 5 5 4 4 4 5 4 5 5 4 5 4 4 3 4 5 6
8 7 7 7 7 6 6 6 5 5 4 5 6 6 4 5 6 6 6 6 5 6 6 6 6 5 5 4 5 5 5 5 5 5 5 5 5 5 6 5 5 6
8 7 8 8 7 6 7 6 6 5 4 5 6 5 6 6 5 6 5 5 6 6 6 5 5 5 4 4 5 5 5 6 5 4 5 5 6 5 5 5 6 6
8 8 8 8 8 7 8 7 6 6 5 5 6 6 6 6 5 5 5 5 6 6 6 5 5 5 4 5 5 5 6 5 5 4 5 6 5 5 5 6 6 7
9 8 9 9 8 8 8 8 7 6 6 6 6 7 5 5 6 5 4 5 5 6 6 5 4 4 5 6 6 5 5 4 5 5 5 4 4 5 5 5 6 6
9 9 9 8 7 7 6 6 7 7 6 6 5 5 5 5 4 5 4 4 5 5 4 4 4 4 4 5 5 5 5 5 5 5 5 5 5 6 5 5 6 6
10 9 7 7 6 5 6 7 7 6 7 6 5 6 7 6 6 5 4 3 3 4 4 4 4 3 4 4 5 5 5 5 5 5 5 5 6 6 5 6 6 6
8 6 6 7 8 7 7 7 7 7 6 7 7 7 6 5 4 4 4 3 3 4 4 4 3 4 5 5 6 6 5 6 6 5 5 6 6 6 6 6 5 5
7 7 9 8 6 7 7 8 8 7 7 7 7 7 6 5 4 4 4 4 4 4 4 3 4 4 6 10 9 6 5 5 5 5 5 5 6 6 6 5 6 5
10 9 5 6 7 6 9 10 9 8 8 8 7 6 5 4 4 4 4 4 4 4 4 5 4 4 9 10 11 11 6 4 5 5 4 5 6 6 6 6 6 5
8 6 5 3 4 8 11 11 8 7 8 7 6 5 4 3 4 5 5 4 3 3 4 6 5 7 11 11 11 11 9 6 5 5 5 6 6 6 6 6 6 6
9 8 7 7 11 13 12 9 8 7 7 6 7 5 3 4 5 4 4 3 3 4 6 7 7 9 10 11 12 12 11 9 6 6 6 7 6 6 6 7 7 7
9 10 11 14 14 12 11 9 8 9 7 5 4 3 4 4 3 4 0 3 3 2 9 9 8 9 12 12 12 12 12 9 5 6 6 6 6 6 6 7 7 7
12 13 12 11 11 11 10 9 8 6 5 5 5 5 5 5 6 3 3 4 3 4 6 8 5 4 4 7 9 10 9 6 4 3 4 5 5 5 6 7 6 6
11 10 9 9 10 10 9 9 7 7 7 5 3 3 3 3 1 4 5 4 4 3 4 6 4 3 4 6 8 8 6 4 4 4 4 5 6 5 6 6 6 5
10 10 9 9 10 10 10 9 8 7 4 3 3 4 5 5 5 5 4 5 4 5 4 4 4 6 8 9 8 6 5 4 3 3 4 5 6 5 5 5 4 4
11 9 9 10 10 12 11 7 4 4 5 6 7 7 8 4 5 3 3 5 6 6 6 5 5 7 9 10 8 7 6 4 3 3 4 5 6 5 4 4 5 9
10 9 10 10 11 11 6 5 6 7 5 4 5 4 3 5 4 5 5 5 6 5 7 6 5 6 8 8 8 7 5 3 3 3 4 5 5 5 4 4 5 5
8 8 8 9 9 7 3 2 1 1 2 5 3 3 4 4 3 3 5 6 5 4 4 4 4 5 4 7 8 7 6 4 2 2 4 4 3 3 5 5 4 5
Wind_Direction
170 168 169 164 169 165 163 155 173 162 167 159 161 190 180 206 199 200 197 177 194 195 207 218 210 211 224 232 226 221 226 225 238 224 211 213 228 224 246 255 261 230
180 173 170 162 163 159 164 161 173 165 177 176 182 184 205 192 208 187 186 193 205 210 208 213 211 211 217 221 223 215 235 234 246 232 221 223 236 217 237 241 240 241
176 174 165 163 166 170 172 180 168 174 171 189 192 189 192 196 201 201 188 189 203 218 225 224 225 224 220 222 219 216 222 230 238 250 223 231 231 220 229 228 230 210
181 175 171 170 165 171 176 168 171 174 181 192 203 196 188 201 186 192 203 207 195 215 224 223 225 229 225 230 222 221 220 222 226 220 226 239 227 214 229 222 219 213
180 178 176 173 170 168 160 167 181 185 193 208 208 203 201 189 195 205 203 212 202 214 221 225 223 223 218 221 206 216 227 228 237 221 221 229 234 221 235 220 221 224
181 176 180 176 176 166 167 174 180 182 200 199 214 208 198 193 198 201 206 212 214 215 222 225 223 224 209 209 202 211 220 225 233 216 219 225 240 238 232 229 235 234
180 178 179 179 176 175 174 180 178 181 190 204 186 208 198 196 203 210 211 211 216 219 220 222 217 223 223 216 215 223 228 226 233 221 221 235 237 256 27 23 279 258
180 178 173 175 177 181 178 179 180 183 196 183 198 222 201 209 212 219 218 216 217 227 227 224 217 216 220 212 224 229 237 227 229 225 222 233 228 222 168 209 238 247
175 177 176 181 182 185 177 180 188 198 193 195 214 228 220 210 217 222 226 221 223 232 231 229 223 221 222 211 222 224 228 229 224 218 217 226 231 219 211 215 234 239
178 177 177 183 183 184 187 190 193 203 211 209 220 224 230 230 222 226 228 226 228 237 238 239 235 234 233 220 218 218 225 231 228 220 219 223 228 221 217 212 218 230
179 177 180 185 185 188 194 194 196 203 213 218 223 232 231 226 231 224 224 223 225 234 241 241 239 235 234 233 228 223 226 232 232 229 231 229 225 219 217 213 220 223
180 180 186 188 191 194 197 196 196 202 207 219 216 226 222 208 209 207 199 209 216 225 228 231 233 223 221 224 226 227 232 237 239 235 232 231 232 231 228 224 224 230
182 186 188 190 194 199 205 206 201 199 198 210 205 199 187 195 199 194 209 197 217 220 219 217 223 221 216 224 230 229 228 233 239 241 245 245 243 237 237 235 236 238
186 184 181 185 192 199 212 212 212 201 202 201 189 190 191 193 200 200 218 200 214 204 217 214 213 214 218 223 224 222 223 232 234 236 240 248 252 251 244 243 241 240
175 171 176 179 190 195 215 219 212 203 202 194 192 195 197 198 198 192 204 227 232 228 243 248 233 225 214 213 216 224 221 232 233 234 237 245 252 255 252 248 248 243
165 177 186 188 187 199 219 226 220 210 203 201 201 200 199 197 197 204 199 211 234 257 265 266 246 228 223 217 213 216 219 224 231 239 242 244 250 254 255 246 244 241
178 187 172 181 194 195 219 229 222 211 206 207 206 205 205 205 196 209 219 224 222 235 264 267 252 244 236 231 229 229 224 222 228 245 250 255 256 260 264 266 264 253
170 165 185 219 208 220 224 221 216 207 208 210 209 212 215 196 209 217 221 233 242 259 264 260 257 244 237 236 233 234 229 226 229 238 248 253 254 257 259 260 261 265
164 157 159 202 224 225 225 219 213 212 213 211 214 211 182 195 220 224 235 247 279 297 277 261 253 248 233 226 228 231 229 220 228 228 233 243 246 245 251 253 254 256
141 171 197 211 216 220 220 217 212 214 212 207 201 185 191 214 223 232 280 52 76 283 271 275 260 246 226 221 227 232 231 219 226 225 229 239 242 243 246 252 250 249
172 192 197 213 225 221 216 215 210 210 205 202 194 193 195 209 221 193 131 187 206 248 273 272 272 313 276 255 253 252 255 241 238 245 252 254 255 255 256 257 258 249
192 196 199 208 213 214 212 212 208 203 206 194 184 189 207 214 141 137 186 195 199 208 237 261 258 268 243 242 239 242 221 212 216 228 248 263 267 259 258 257 253 250
209 194 200 207 212 212 214 211 206 207 199 155 165 196 214 214 174 184 182 186 198 210 214 236 248 240 237 247 248 212 194 210 206 227 254 266 270 265 263 263 258 250
215 202 200 206 209 215 215 208 189 194 187 175 186 205 220 190 149 158 200 199 201 210 209 215 235 244 241 253 252 220 210 212 217 230 262 270 275 277 274 271 265 268
203 203 202 203 211 217 201 181 190 197 196 175 185 187 168 120 136 167 205 219 216 212 215 218 237 250 244 240 235 224 214 223 229 236 253 259 263 287 290 280 285 288
199 202 202 201 209 204 158 110 122 158 121 122 137 152 124 112 128 181 205 224 226 223 229 229 237 256 253 237 224 221 219 229 244 247 255 271 287 278 293 292 290 294